Location: Newark
(34.0635°N, 86.7609°W)
Time: 04:01:36
(UTC+00:00)

Envisat - Visible Passes

Search period start: 07 December 2019 00:00
Search period end: 17 December 2019 00:00
Orbit: 764 x 766 km, 98.1° (Epoch: 06 December)

Date Brightness Start Highest point End Pass type
(mag) Time Alt. Az. Time Alt. Az. Time Alt. Az.
07 Dec 5.8 01:05:29 10° SW 01:08:31 16° W 01:11:33 10° NW visible
07 Dec 5.7 11:37:50 10° NE 11:41:46 22° E 11:45:42 10° SE visible
08 Dec 4.4 00:26:50 10° SSW 00:31:31 38° W 00:36:14 10° NNW visible
08 Dec 2.9 23:49:38 10° SSE 23:54:42 88° ENE 23:59:48 10° NNW visible
09 Dec 4.5 12:02:36 10° NNE 12:07:23 41° E 12:12:09 10° S visible
09 Dec 3.5 23:13:27 10° SE 23:18:05 37° ENE 23:22:43 10° N visible
10 Dec 5.5 00:53:25 10° SW 00:57:08 21° W 01:00:54 10° NW visible
10 Dec 6.0 11:27:06 10° NE 11:30:25 17° E 11:33:43 10° SE visible
11 Dec 3.9 00:15:19 10° S 00:20:12 49° W 00:25:08 10° NNW visible
11 Dec 2.9 23:38:26 10° SSE 23:43:27 69° ENE 23:48:30 10° N visible
12 Dec 6.2 01:21:53 10° WSW 01:22:52 10° W 01:23:51 10° W visible
12 Dec 5.0 11:51:33 10° NE 11:56:04 32° E 12:00:34 10° SSE visible
12 Dec 3.8 23:02:33 10° SE 23:06:52 29° ENE 23:11:12 10° NNE visible
13 Dec 5.1 00:41:34 10° SSW 00:45:48 26° W 00:50:03 10° NW visible
13 Dec 6.2 11:16:41 10° ENE 11:19:02 13° E 11:21:23 10° ESE visible
14 Dec 3.4 00:03:54 10° S 00:08:55 64° W 00:13:58 10° NNW visible
14 Dec 3.7 12:16:36 10° NNE 12:21:38 60° E 12:26:38 10° S visible
14 Dec 3.1 23:27:18 10° SSE 23:32:12 53° ENE 23:37:08 10° N visible
15 Dec 6.0 01:08:49 10° SW 01:11:29 14° W 01:14:09 10° WNW visible
15 Dec 5.5 11:40:36 10° NE 11:44:44 25° E 11:48:51 10° SSE visible
16 Dec 4.6 00:29:53 10° SSW 00:34:28 34° W 00:39:05 10° NNW visible
